Time,TemperatureF,DewpointF,PressureIn,WindDirection,WindDirectionDegrees,WindSpeedMPH,WindSpeedGustMPH,Humidity,HourlyPrecipIn,Conditions,Clouds,dailyrainin,SolarRadiationWatts/m^2,SoftwareType,DateUTC
2013-11-24 00:01:00,43.0,37.0,-100.00,SSW,211,3.0,6.0,80,0.00,,,0.00,0.000000,,2013-11-24 08:01:00,
2013-11-24 00:22:00,43.0,36.0,-100.00,SW,230,2.0,7.0,77,0.00,,,0.00,0.000000,,2013-11-24 08:22:00,
2013-11-24 00:32:00,43.0,36.0,-100.00,SW,230,2.0,7.0,77,0.00,,,0.00,0.000000,,2013-11-24 08:32:00,
2013-11-24 00:42:00,43.0,36.0,-100.00,SW,230,2.0,7.0,77,0.00,,,0.00,0.000000,,2013-11-24 08:42:00,
2013-11-24 00:53:00,43.0,36.0,-100.00,SW,230,2.0,7.0,77,0.00,,,0.00,0.000000,,2013-11-24 08:53:00,
2013-11-24 01:02:00,43.0,36.0,-100.00,SW,230,2.0,7.0,77,0.00,,,0.00,0.000000,,2013-11-24 09:02:00,
2013-11-24 01:43:00,43.0,36.0,-100.00,SW,234,3.0,7.0,77,0.00,,,0.00,0.000000,,2013-11-24 09:43:00,
2013-11-24 01:53:00,43.0,36.0,-100.00,SW,234,3.0,7.0,77,0.00,,,0.00,0.000000,,2013-11-24 09:53:00,
2013-11-24 02:03:00,43.0,36.0,-100.00,SW,234,3.0,7.0,77,0.00,,,0.00,0.000000,,2013-11-24 10:03:00,
2013-11-24 02:43:00,42.0,36.0,-100.00,SSW,204,2.0,8.0,78,0.00,,,0.00,0.000000,,2013-11-24 10:43:00,
2013-11-24 02:53:00,42.0,36.0,-100.00,SSW,204,2.0,8.0,78,0.00,,,0.00,0.000000,,2013-11-24 10:53:00,
2013-11-24 03:02:00,42.0,36.0,-100.00,SSW,204,2.0,8.0,78,0.00,,,0.00,0.000000,,2013-11-24 11:02:00,
2013-11-24 03:22:00,42.0,35.0,-100.00,WSW,238,3.0,7.0,76,0.00,,,0.00,0.000000,,2013-11-24 11:22:00,
2013-11-24 03:33:00,42.0,35.0,-100.00,WSW,238,3.0,7.0,76,0.00,,,0.00,0.000000,,2013-11-24 11:33:00,
2013-11-24 03:43:00,42.0,35.0,-100.00,WSW,238,3.0,7.0,76,0.00,,,0.00,0.000000,,2013-11-24 11:43:00,
2013-11-24 03:53:00,42.0,35.0,-100.00,WSW,238,3.0,7.0,76,0.00,,,0.00,0.000000,,2013-11-24 11:53:00,
2013-11-24 04:02:00,42.0,35.0,-100.00,WSW,238,3.0,7.0,76,0.00,,,0.00,0.000000,,2013-11-24 12:02:00,
2013-11-24 04:22:00,39.0,34.0,-100.00,SW,222,2.0,8.0,82,0.00,,,0.00,0.000000,,2013-11-24 12:22:00,
2013-11-24 04:32:00,39.0,34.0,-100.00,SW,222,2.0,8.0,82,0.00,,,0.00,0.000000,,2013-11-24 12:32:00,
2013-11-24 04:42:00,39.0,34.0,-100.00,SW,222,2.0,8.0,82,0.00,,,0.00,0.000000,,2013-11-24 12:42:00,
2013-11-24 04:53:00,39.0,34.0,-100.00,SW,222,2.0,8.0,82,0.00,,,0.00,0.000000,,2013-11-24 12:53:00,
2013-11-24 05:01:00,39.0,34.0,-100.00,SW,222,2.0,8.0,82,0.00,,,0.00,0.000000,,2013-11-24 13:01:00,
2013-11-24 05:22:00,39.0,34.0,-100.00,SSW,211,2.0,6.0,81,0.00,,,0.00,0.000000,,2013-11-24 13:22:00,
2013-11-24 05:32:00,39.0,34.0,-100.00,SSW,211,2.0,6.0,81,0.00,,,0.00,0.000000,,2013-11-24 13:32:00,
2013-11-24 05:42:00,39.0,34.0,-100.00,SSW,211,2.0,6.0,81,0.00,,,0.00,0.000000,,2013-11-24 13:42:00,
2013-11-24 05:52:00,39.0,34.0,-100.00,SSW,211,2.0,6.0,81,0.00,,,0.00,0.000000,,2013-11-24 13:52:00,
2013-11-24 06:01:00,39.0,34.0,-100.00,SSW,211,2.0,6.0,81,0.00,,,0.00,0.000000,,2013-11-24 14:01:00,
2013-11-24 06:42:00,39.0,34.0,-100.00,SW,221,3.0,7.0,81,0.00,,,0.00,0.000000,,2013-11-24 14:42:00,
2013-11-24 06:52:00,39.0,34.0,-100.00,SW,221,3.0,7.0,81,0.00,,,0.00,0.000000,,2013-11-24 14:52:00,
2013-11-24 07:02:00,39.0,34.0,-100.00,SW,221,3.0,7.0,81,0.00,,,0.00,0.000000,,2013-11-24 15:02:00,
2013-11-24 07:22:00,39.0,34.0,-100.00,SW,220,3.0,7.0,82,0.00,,,0.00,1.000000,,2013-11-24 15:22:00,
2013-11-24 07:33:00,39.0,34.0,-100.00,SW,220,3.0,7.0,82,0.00,,,0.00,1.000000,,2013-11-24 15:33:00,
2013-11-24 07:44:00,39.0,34.0,-100.00,SW,220,3.0,7.0,82,0.00,,,0.00,1.000000,,2013-11-24 15:44:00,
2013-11-24 07:53:00,39.0,34.0,-100.00,SW,220,3.0,7.0,82,0.00,,,0.00,1.000000,,2013-11-24 15:53:00,
2013-11-24 08:03:00,39.0,34.0,-100.00,SW,220,3.0,7.0,82,0.00,,,0.00,1.000000,,2013-11-24 16:03:00,
2013-11-24 08:23:00,39.0,34.0,-100.00,SSW,201,2.0,7.0,82,0.00,,,0.00,15.000000,,2013-11-24 16:23:00,
2013-11-24 08:33:00,39.0,34.0,-100.00,SSW,201,2.0,7.0,82,0.00,,,0.00,15.000000,,2013-11-24 16:33:00,
2013-11-24 08:43:00,39.0,34.0,-100.00,SSW,201,2.0,7.0,82,0.00,,,0.00,15.000000,,2013-11-24 16:43:00,
2013-11-24 08:53:00,39.0,34.0,-100.00,SSW,201,2.0,7.0,82,0.00,,,0.00,15.000000,,2013-11-24 16:53:00,
2013-11-24 09:02:00,39.0,34.0,-100.00,SSW,201,2.0,7.0,82,0.00,,,0.00,15.000000,,2013-11-24 17:02:00,
2013-11-24 09:23:00,46.0,36.0,-100.00,SSW,209,3.0,8.0,67,0.00,,,0.00,35.000000,,2013-11-24 17:23:00,
2013-11-24 09:33:00,46.0,36.0,-100.00,SSW,209,3.0,8.0,67,0.00,,,0.00,35.000000,,2013-11-24 17:33:00,
2013-11-24 09:43:00,46.0,36.0,-100.00,SSW,209,3.0,8.0,67,0.00,,,0.00,35.000000,,2013-11-24 17:43:00,
2013-11-24 09:52:00,46.0,36.0,-100.00,SSW,209,3.0,8.0,67,0.00,,,0.00,35.000000,,2013-11-24 17:52:00,
2013-11-24 10:02:00,46.0,36.0,-100.00,SSW,209,3.0,8.0,67,0.00,,,0.00,35.000000,,2013-11-24 18:02:00,
2013-11-24 10:22:00,56.0,39.0,-100.00,SSE,151,1.0,6.0,53,0.00,,,0.00,348.000000,,2013-11-24 18:22:00,
2013-11-24 10:33:00,56.0,39.0,-100.00,SSE,151,1.0,6.0,53,0.00,,,0.00,348.000000,,2013-11-24 18:33:00,
2013-11-24 10:42:00,56.0,39.0,-100.00,SSE,151,1.0,6.0,53,0.00,,,0.00,348.000000,,2013-11-24 18:42:00,
2013-11-24 10:52:00,56.0,39.0,-100.00,SSE,151,1.0,6.0,53,0.00,,,0.00,348.000000,,2013-11-24 18:52:00,
2013-11-24 11:02:00,56.0,39.0,-100.00,SSE,151,1.0,6.0,53,0.00,,,0.00,348.000000,,2013-11-24 19:02:00,
2013-11-24 11:22:00,61.0,39.0,-100.00,SE,130,3.0,10.0,44,0.00,,,0.00,439.000000,,2013-11-24 19:22:00,
2013-11-24 11:32:00,61.0,39.0,-100.00,SE,130,3.0,10.0,44,0.00,,,0.00,439.000000,,2013-11-24 19:32:00,
2013-11-24 11:42:00,61.0,39.0,-100.00,SE,130,3.0,10.0,44,0.00,,,0.00,439.000000,,2013-11-24 19:42:00,
2013-11-24 11:52:00,61.0,39.0,-100.00,SE,130,3.0,10.0,44,0.00,,,0.00,439.000000,,2013-11-24 19:52:00,
2013-11-24 12:02:00,61.0,39.0,-100.00,SE,130,3.0,10.0,44,0.00,,,0.00,439.000000,,2013-11-24 20:02:00,
2013-11-24 12:22:00,64.0,39.0,-100.00,ENE,60,4.0,13.0,39,0.00,,,0.00,556.000000,,2013-11-24 20:22:00,
2013-11-24 12:32:00,64.0,39.0,-100.00,ENE,60,4.0,13.0,39,0.00,,,0.00,556.000000,,2013-11-24 20:32:00,
2013-11-24 12:42:00,64.0,39.0,-100.00,ENE,60,4.0,13.0,39,0.00,,,0.00,556.000000,,2013-11-24 20:42:00,
2013-11-24 12:52:00,64.0,39.0,-100.00,ENE,60,4.0,13.0,39,0.00,,,0.00,556.000000,,2013-11-24 20:52:00,
2013-11-24 13:01:00,64.0,39.0,-100.00,ENE,60,4.0,13.0,39,0.00,,,0.00,556.000000,,2013-11-24 21:01:00,
2013-11-24 13:22:00,65.0,38.0,-100.00,East,95,6.0,13.0,37,0.00,,,0.00,547.000000,,2013-11-24 21:22:00,
2013-11-24 13:34:00,65.0,38.0,-100.00,East,95,6.0,13.0,37,0.00,,,0.00,547.000000,,2013-11-24 21:34:00,
2013-11-24 13:43:00,65.0,38.0,-100.00,East,95,6.0,13.0,37,0.00,,,0.00,547.000000,,2013-11-24 21:43:00,
2013-11-24 13:54:00,65.0,38.0,-100.00,East,95,6.0,13.0,37,0.00,,,0.00,547.000000,,2013-11-24 21:54:00,
2013-11-24 14:03:00,65.0,38.0,-100.00,East,95,6.0,13.0,37,0.00,,,0.00,547.000000,,2013-11-24 22:03:00,
2013-11-24 14:43:00,64.0,39.0,-100.00,East,89,5.0,11.0,39,0.00,,,0.00,378.000000,,2013-11-24 22:43:00,
2013-11-24 14:53:00,64.0,39.0,-100.00,East,89,5.0,11.0,39,0.00,,,0.00,378.000000,,2013-11-24 22:53:00,
2013-11-24 15:02:00,64.0,39.0,-100.00,East,89,5.0,11.0,39,0.00,,,0.00,378.000000,,2013-11-24 23:02:00,
2013-11-24 15:22:00,66.0,39.0,-100.00,ESE,106,4.0,10.0,37,0.00,,,0.00,362.000000,,2013-11-24 23:22:00,
2013-11-24 15:33:00,66.0,39.0,-100.00,ESE,106,4.0,10.0,37,0.00,,,0.00,362.000000,,2013-11-24 23:33:00,
2013-11-24 15:42:00,66.0,39.0,-100.00,ESE,106,4.0,10.0,37,0.00,,,0.00,362.000000,,2013-11-24 23:42:00,
2013-11-24 15:52:00,66.0,39.0,-100.00,ESE,106,4.0,10.0,37,0.00,,,0.00,362.000000,,2013-11-24 23:52:00,
2013-11-24 16:02:00,66.0,39.0,-100.00,ESE,106,4.0,10.0,37,0.00,,,0.00,362.000000,,2013-11-25 00:02:00,
2013-11-24 16:42:00,59.0,39.0,-100.00,SSW,192,2.0,8.0,48,0.00,,,0.00,120.000000,,2013-11-25 00:42:00,
2013-11-24 16:52:00,59.0,39.0,-100.00,SSW,192,2.0,8.0,48,0.00,,,0.00,120.000000,,2013-11-25 00:52:00,
2013-11-24 17:01:00,59.0,39.0,-100.00,SSW,192,2.0,8.0,48,0.00,,,0.00,120.000000,,2013-11-25 01:01:00,
2013-11-24 18:52:00,49.0,39.0,-100.00,WSW,242,0.0,3.0,68,0.00,,,0.00,0.000000,,2013-11-25 02:52:00,
2013-11-24 19:01:00,49.0,39.0,-100.00,WSW,242,0.0,3.0,68,0.00,,,0.00,0.000000,,2013-11-25 03:01:00,
2013-11-24 20:43:00,45.0,37.0,-100.00,WSW,239,2.0,5.0,73,0.00,,,0.00,0.000000,,2013-11-25 04:43:00,
2013-11-24 20:52:00,45.0,37.0,-100.00,WSW,239,2.0,5.0,73,0.00,,,0.00,0.000000,,2013-11-25 04:52:00,
2013-11-24 21:02:00,45.0,37.0,-100.00,WSW,239,2.0,5.0,73,0.00,,,0.00,0.000000,,2013-11-25 05:02:00,
2013-11-24 21:43:00,45.0,37.0,-100.00,SW,219,3.0,6.0,73,0.00,,,0.00,0.000000,,2013-11-25 05:43:00,
2013-11-24 21:53:00,45.0,37.0,-100.00,SW,219,3.0,6.0,73,0.00,,,0.00,0.000000,,2013-11-25 05:53:00,
2013-11-24 22:02:00,45.0,37.0,-100.00,SW,219,3.0,6.0,73,0.00,,,0.00,0.000000,,2013-11-25 06:02:00,
2013-11-24 22:42:00,45.0,36.0,-100.00,WSW,242,3.0,7.0,71,0.00,,,0.00,0.000000,,2013-11-25 06:42:00,
2013-11-24 22:52:00,45.0,36.0,-100.00,WSW,242,3.0,7.0,71,0.00,,,0.00,0.000000,,2013-11-25 06:52:00,
2013-11-24 23:01:00,45.0,36.0,-100.00,WSW,242,3.0,7.0,71,0.00,,,0.00,0.000000,,2013-11-25 07:01:00,
2013-11-24 23:42:00,45.0,36.0,-100.00,WSW,246,3.0,7.0,71,0.00,,,0.00,0.000000,,2013-11-25 07:42:00,
2013-11-24 23:52:00,45.0,36.0,-100.00,WSW,246,3.0,7.0,71,0.00,,,0.00,0.000000,,2013-11-25 07:52:00,